Location: Unspecified
(44.4377°N, 88.0525°W)
Time: 06:55:20
(UTC-05:00)

CZ-3 Stage 3 - Visible Passes

Search period start: 31 May 2016 00:00
Search period end: 10 June 2016 00:00
Orbit: 425 x 34779 km, 30.4° (Epoch: 31 May)

Date Brightness Start Highest point End Pass type
(mag) Time Alt. Az. Time Alt. Az. Time Alt. Az.
02 Jun 4.5 01:55:43 10° WSW 02:16:32 32° SSW 02:21:25 10° SE visible
02 Jun 6.1 16:48:41 10° S 22:29:49 37° S 22:45:28 10° ESE visible
05 Jun 4.5 01:46:46 10° WSW 02:08:05 33° SSW 02:13:00 10° SE visible
05 Jun 6.1 16:31:56 10° S 22:21:32 38° S 22:37:09 10° ESE visible
08 Jun 4.5 01:37:49 10° WSW 01:59:38 33° SSW 02:04:35 10° SE visible
08 Jun 6.1 16:15:30 10° S 22:13:14 39° S 22:28:49 10° ESE visible
